Regional Weather Roundup
Issued by NWS Cleveland, OH

Home | Current Version | Previous Version | Text Only | Print | Product List | Glossary Off
Versions: 1 2 3 4 5 6 7 8 9 10 11 12 13 14 15 16 17 18 19 20 21 22 23 24 25 26 27 28 29 30 31 32 33 34 35 36 37 38 39 40 41 42 43 44 45 46 47 48 49 50

000
ASUS41 KCLE 281302
RWRCLE
OHIO REGIONAL WEATHER ROUNDUP
NATIONAL WEATHER SERVICE CLEVELAND, OH
800 AM EST FRI NOV 28 2014

NOTE: "FAIR" INDICATES FEW OR NO CLOUDS BELOW 12,000 FEET WITH NO
SIGNIFICANT WEATHER AND/OR OBSTRUCTIONS TO VISIBILITY.

OHZ001>008-015>018-024>027-034-035-043-044-281400-
   NORTHWEST OHIO

CITY           SKY/WX    TMP DP  RH WIND       PRES   REMARKS
DEFIANCE       CLOUDY    22  16  78 SW3       30.37F
FINDLAY        CLOUDY    23  19  85 W7        30.37R WCI  15
TOLEDO EXPRESS CLOUDY    18  10  71 CALM      30.37S
TOLEDO EXEC    CLOUDY    19  11  70 SW6       30.39S WCI  11
LIMA           MOCLDY    23  16  74 W6        30.36F WCI  16
$$

OHZ009>014-019>023-028>033-038-089-281400-
   NORTHEAST OHIO

CITY           SKY/WX    TMP DP  RH WIND       PRES   REMARKS
CLE-HOPKINS    MOCLDY    21  13  71 SW7       30.36S WCI  12
CLE-LAKEFRONT  CLOUDY    26  14  60 W13       30.33S WCI  15
CUY CO. ARPT   FLURRIES  25  16  68 NW14      30.33R WCI  13
LORAIN-ELYRIA  CLOUDY    15   9  76 W7        30.35S WCI   5
ASHTABULA      CLOUDY    23  13  65 NW10      30.31R WCI  12
AKRON-CANTON   MOCLDY    19  12  74 W6        30.32R WCI  11
WOOSTER        CLOUDY    20  12  71 W8        30.34S WCI  10
MANSFIELD      CLOUDY    20  14  77 CALM      30.32F
YOUNGSTOWN     MOCLDY    20  13  74 W7        30.30R WCI  11
$$

OHZ042-051>053-060>062-070>072-077>081-281400-
  SOUTHWEST OHIO

CITY           SKY/WX    TMP DP  RH WIND       PRES   REMARKS
CINC-COVINGTON CLOUDY    27  18  69 W6        30.39S WCI  20
CINC-LUNKEN    CLOUDY    28  20  71 SW8       30.42F WCI  20
HAMILTON       CLOUDY    26  18  71 CALM      30.41F
DAYTON         MOCLDY    23  17  78 SW3       30.37F
WRIGHT-PAT AFB PTCLDY    21  17  83 SW2       30.39F
DAYTON GENERAL CLOUDY    23  17  78 CALM      30.37F
WILMINGTON     CLOUDY    23  15  71 CALM      30.38S
$$

OHZ036-037-039>041-045>050-054>059-063>069-073>076-082>088-281400-
  CENTRAL AND SOUTHEAST OHIO

CITY           SKY/WX    TMP DP  RH WIND       PRES   REMARKS
COLUMBUS       MOCLDY    21  16  81 W5        30.38R WCI  15
OSU AIRPORT    MOCLDY    22  17  81 W6        30.37R WCI  14
BOLTON FIELD   PTCLDY    21  18  86 SW3       30.39R
RICKENBACK AFB NOT AVBL
NEWARK         PTCLDY    23  17  78 W6        30.37R WCI  16
MARION         CLOUDY    23  18  81 SW7       30.36S WCI  15
LANCASTER      PTCLDY    19  15  84 CALM      30.39R FOG
ZANESVILLE     FLURRIES  25  19  78 W6        30.36R WCI  18
NEW PHILLY     CLOUDY    24  13  62 NW5       30.36R WCI  18
$$



USA.gov is the U.S. government's official web portal to all federal, state and local government web resources and services.